M I D A S
Marine Information and Data Acquisition System
Tripno 1621 of the Zeeleeuw from 2008-12-17 07:56:55 to 2008-12-17 14:39:23
Back to CruiseResearch ActivitiesStationsMapUnderway DataData graphs

EquipmentUnitsComments
TimeDGPSUTC
LatitudeDGPSDM.mWGS84
LongitudeDGPSDM.mWGS84
SpeedMeteo Stationm/sRelative wind speed
DirectionMeteo StationdegRelative wind direction
TemperatureMeteo Stationdeg CelciusAir temperature
PressureMeteo StationPaAtmospheric pressure
HumidityMeteo Station%Relative humidity
Missing or incorrect values are displayed as -999
Metereological data collected by the RV Zeeleeuw from 2008-12-17 08:00:30 to 2008-12-17 14:43:06
                                                                                    Next 1000 lines
Time Latitude Longitude Speed Direction Temperature Pressure Humidity
2008-12-17 08:00:40 51°13.662 2°55.952 1.8 52 3.7 101120 93
2008-12-17 08:00:45 51°13.663 2°55.948 2 24 3.7 101130 94
2008-12-17 08:00:50 51°13.664 2°55.944 2.1 56 3.7 101130 94
2008-12-17 08:00:55 51°13.666 2°55.938 2.1 19 3.7 101120 94
2008-12-17 08:01:01 51°13.668 2°55.931 2.7 54 3.7 101120 94
2008-12-17 08:01:07 51°13.67 2°55.923 3.1 26 3.7 101120 94
2008-12-17 08:01:12 51°13.672 2°55.915 2.3 76 3.7 101120 94
2008-12-17 08:01:18 51°13.674 2°55.906 3.3 24 3.7 101120 94
2008-12-17 08:01:23 51°13.675 2°55.899 3 49 3.7 101120 94
2008-12-17 08:01:28 51°13.677 2°55.891 3.1 24 3.7 101120 94
2008-12-17 08:01:34 51°13.679 2°55.882 3.2 75 3.7 101120 94
2008-12-17 08:01:38 51°13.68 2°55.876 2.8 18 3.7 101120 94
2008-12-17 08:01:43 51°13.681 2°55.869 2.6 80 3.7 101120 94
2008-12-17 08:01:48 51°13.683 2°55.862 3.1 26 3.7 101120 94
2008-12-17 08:01:53 51°13.684 2°55.855 2.7 50 3.7 101120 94
2008-12-17 08:01:58 51°13.685 2°55.848 2.9 21 3.7 101130 94
2008-12-17 08:02:03 51°13.686 2°55.841 2.7 45 3.7 101130 94
2008-12-17 08:02:07 51°13.687 2°55.836 2.7 26 3.7 101120 95
2008-12-17 08:02:12 51°13.688 2°55.83 2.6 58 3.7 101120 95
2008-12-17 08:02:17 51°13.689 2°55.823 2.6 25 3.6 101120 94
2008-12-17 08:02:22 51°13.69 2°55.818 2.9 79 3.6 101120 94
2008-12-17 08:02:27 51°13.691 2°55.812 2.8 24 3.6 101130 94
2008-12-17 08:02:31 51°13.692 2°55.808 2.9 80 3.6 101130 94
2008-12-17 08:02:36 51°13.692 2°55.802 2.7 20 3.6 101130 96
2008-12-17 08:02:41 51°13.693 2°55.797 2.5 78 3.6 101130 96
2008-12-17 08:02:46 51°13.694 2°55.792 2.5 25 3.6 101130 95
2008-12-17 08:02:51 51°13.694 2°55.787 2.4 78 3.6 101130 95
2008-12-17 08:02:55 51°13.695 2°55.783 2.4 19 3.6 101130 95
2008-12-17 08:03:00 51°13.695 2°55.778 1.8 54 3.6 101130 95
2008-12-17 08:03:05 51°13.695 2°55.773 1.5 25 3.6 101120 94
2008-12-17 08:03:10 51°13.696 2°55.769 1.4 78 3.6 101120 94
2008-12-17 08:03:15 51°13.696 2°55.764 1.6 19 3.6 101130 95
2008-12-17 08:03:20 51°13.696 2°55.76 1.7 54 3.6 101130 95
2008-12-17 08:03:25 51°13.696 2°55.756 1.7 18 3.6 101120 95
2008-12-17 08:03:30 51°13.697 2°55.752 1.7 53 3.6 101120 95
2008-12-17 08:03:35 51°13.697 2°55.749 1.9 23 3.6 101120 95
2008-12-17 08:03:39 51°13.697 2°55.746 1.6 80 3.6 101120 95
2008-12-17 08:03:44 51°13.697 2°55.743 1.2 20 3.7 101130 96
2008-12-17 08:03:50 51°13.697 2°55.74 1.5 55 3.7 101130 96
2008-12-17 08:03:55 51°13.697 2°55.737 1.4 25 3.7 101130 96
2008-12-17 08:04:00 51°13.696 2°55.734 1.4 81 3.7 101130 96
2008-12-17 08:04:05 51°13.696 2°55.732 0.9 26 3.7 101120 95
2008-12-17 08:04:10 51°13.696 2°55.731 1.1 51 3.7 101120 95
2008-12-17 08:04:15 51°13.696 2°55.729 1.3 25 3.7 101130 96
2008-12-17 08:04:20 51°13.696 2°55.727 1.1 75 3.7 101130 96
2008-12-17 08:04:25 51°13.697 2°55.725 0.8 25 3.7 101130 97
2008-12-17 08:04:30 51°13.698 2°55.724 1 56 3.7 101130 97
2008-12-17 08:04:35 51°13.698 2°55.723 1.3 26 3.7 101120 96
2008-12-17 08:04:40 51°13.698 2°55.722 0.8 78 3.7 101120 96
2008-12-17 08:04:45 51°13.698 2°55.721 1.2 25 3.8 101130 96
2008-12-17 08:04:50 51°13.699 2°55.72 1.2 75 3.8 101130 96
2008-12-17 08:04:55 51°13.699 2°55.719 0.7 20 3.8 101130 96
2008-12-17 08:05:00 51°13.7 2°55.718 1.1 58 3.8 101130 96
2008-12-17 08:05:05 51°13.7 2°55.717 1.3 26 3.8 101130 96
2008-12-17 08:05:10 51°13.7 2°55.716 0.8 57 3.8 101130 96
2008-12-17 08:05:15 51°13.701 2°55.715 1.4 24 3.7 101130 96
2008-12-17 08:05:20 51°13.701 2°55.714 1.6 54 3.7 101130 96
2008-12-17 08:05:25 51°13.701 2°55.713 1.9 20 3.8 101130 96
2008-12-17 08:05:30 51°13.701 2°55.712 2.5 53 3.8 101130 96
2008-12-17 08:05:35 51°13.701 2°55.711 2.5 22 3.8 101130 96
2008-12-17 08:05:40 51°13.7 2°55.71 2.5 51 3.8 101130 96
2008-12-17 08:05:45 51°13.7 2°55.709 2.6 22 3.8 101130 96
2008-12-17 08:05:50 51°13.7 2°55.707 2.4 57 3.8 101130 96
2008-12-17 08:05:55 51°13.699 2°55.706 2.2 24 3.8 101130 97
2008-12-17 08:05:59 51°13.699 2°55.705 2.4 78 3.8 101130 97
2008-12-17 08:06:05 51°13.698 2°55.704 2.8 23 3.8 101130 96
2008-12-17 08:06:10 51°13.698 2°55.702 2.5 56 3.8 101130 96
2008-12-17 08:06:15 51°13.697 2°55.701 2.7 25 3.8 101130 97
2008-12-17 08:06:19 51°13.697 2°55.701 2.5 74 3.8 101130 97
2008-12-17 08:06:25 51°13.696 2°55.7 2.2 26 3.8 101130 97
2008-12-17 08:06:30 51°13.696 2°55.698 2.3 55 3.8 101130 97
2008-12-17 08:06:35 51°13.695 2°55.698 2.6 25 3.8 101130 98
2008-12-17 08:06:39 51°13.695 2°55.697 2 75 3.8 101130 98
2008-12-17 08:06:45 51°13.695 2°55.696 2 19 3.8 101130 96
2008-12-17 08:06:50 51°13.695 2°55.695 2.4 58 3.8 101130 96
2008-12-17 08:06:55 51°13.694 2°55.695 2 26 3.8 101130 97
2008-12-17 08:06:59 51°13.694 2°55.695 2.2 79 3.8 101130 97
2008-12-17 08:07:05 51°13.694 2°55.694 1.9 20 3.8 101130 97
2008-12-17 08:07:10 51°13.694 2°55.693 2.2 79 3.8 101130 97
2008-12-17 08:07:15 51°13.693 2°55.693 2.3 25 3.7 101130 97
2008-12-17 08:07:19 51°13.693 2°55.692 2 56 3.7 101130 97
2008-12-17 08:07:25 51°13.693 2°55.692 2 25 3.8 101130 97
2008-12-17 08:07:30 51°13.692 2°55.691 2.4 50 3.8 101130 97
2008-12-17 08:07:35 51°13.692 2°55.691 2.1 20 3.8 101130 96
2008-12-17 08:07:39 51°13.692 2°55.69 1.7 53 3.8 101130 96
2008-12-17 08:07:45 51°13.692 2°55.69 2.3 25 3.8 101130 97
2008-12-17 08:07:50 51°13.692 2°55.69 1.8 56 3.8 101130 97
2008-12-17 08:07:55 51°13.692 2°55.689 2.2 28 3.7 101130 97
2008-12-17 08:07:59 51°13.692 2°55.689 2 53 3.7 101130 97
2008-12-17 08:08:05 51°13.692 2°55.689 2 28 3.7 101130 97
2008-12-17 08:08:10 51°13.693 2°55.689 1.6 55 3.7 101130 97
2008-12-17 08:08:15 51°13.693 2°55.689 1.7 25 3.7 101130 98
2008-12-17 08:08:19 51°13.693 2°55.689 1.4 78 3.7 101130 98
2008-12-17 08:08:24 51°13.694 2°55.689 1.3 21 3.8 101130 97
2008-12-17 08:08:30 51°13.694 2°55.689 1.8 53 3.8 101130 97
2008-12-17 08:08:35 51°13.694 2°55.689 2 26 3.7 101130 97
2008-12-17 08:08:39 51°13.694 2°55.688 1.9 77 3.7 101130 97
2008-12-17 08:08:44 51°13.694 2°55.688 1.6 26 3.7 101130 97
2008-12-17 08:08:50 51°13.694 2°55.688 2 51 3.7 101130 97
2008-12-17 08:08:55 51°13.694 2°55.688 1.8 20 3.7 101130 97
2008-12-17 08:09:00 51°13.694 2°55.687 1.9 56 3.7 101130 97
2008-12-17 08:09:04 51°13.694 2°55.687 1.6 20 3.7 101130 98
2008-12-17 08:09:10 51°13.694 2°55.687 1.4 52 3.7 101130 98
2008-12-17 08:09:15 51°13.695 2°55.687 1.4 26 3.8 101130 98
2008-12-17 08:09:20 51°13.695 2°55.687 1.4 50 3.8 101130 98
2008-12-17 08:09:25 51°13.696 2°55.687 1.5 24 3.7 101130 98
2008-12-17 08:09:30 51°13.697 2°55.687 0.9 79 3.7 101130 98
2008-12-17 08:09:35 51°13.697 2°55.687 1.5 25 3.7 101130 98
2008-12-17 08:09:40 51°13.697 2°55.687 1.5 58 3.7 101130 98
2008-12-17 08:09:45 51°13.697 2°55.687 1.8 25 3.7 101130 98
2008-12-17 08:09:50 51°13.697 2°55.686 1.9 80 3.7 101130 98
2008-12-17 08:09:55 51°13.697 2°55.686 1.8 20 3.7 101130 99
2008-12-17 08:10:00 51°13.697 2°55.686 1.8 56 3.7 101130 99
2008-12-17 08:10:04 51°13.697 2°55.686 1.6 19 3.8 101140 98
2008-12-17 08:10:10 51°13.697 2°55.685 1.9 75 3.8 101140 98
2008-12-17 08:10:15 51°13.697 2°55.685 1.7 22 3.7 101130 98
2008-12-17 08:10:20 51°13.697 2°55.684 1.5 54 3.7 101130 98
2008-12-17 08:10:24 51°13.697 2°55.684 1.3 18 3.7 101140 98
2008-12-17 08:10:30 51°13.698 2°55.684 1.5 51 3.7 101140 98
2008-12-17 08:10:35 51°13.699 2°55.684 1.9 20 3.8 101140 97
2008-12-17 08:10:39 51°13.699 2°55.684 1.5 82 3.8 101140 97
2008-12-17 08:10:44 51°13.699 2°55.683 1.6 26 3.8 101130 98
2008-12-17 08:10:50 51°13.699 2°55.683 1.5 305 3.8 101130 98
2008-12-17 08:10:55 51°13.699 2°55.683 1.5 270 3.8 101140 98
2008-12-17 08:11:00 51°13.7 2°55.682 1.6 56 3.8 101140 98
2008-12-17 08:11:04 51°13.7 2°55.682 1.4 19 3.8 101140 98
2008-12-17 08:11:10 51°13.7 2°55.681 1.6 303 3.8 101140 98
2008-12-17 08:11:15 51°13.7 2°55.681 1.4 29 3.8 101140 98
2008-12-17 08:11:20 51°13.7 2°55.68 0.8 313 3.8 101140 98
2008-12-17 08:11:24 51°13.7 2°55.68 1.1 23 3.8 101140 98
2008-12-17 08:11:30 51°13.7 2°55.679 0.9 282 3.8 101140 98
2008-12-17 08:11:35 51°13.701 2°55.679 0.7 263 3.8 101140 98
2008-12-17 08:11:40 51°13.701 2°55.678 0.7 282 3.8 101140 98
2008-12-17 08:11:45 51°13.702 2°55.678 1.1 264 3.8 101140 98
2008-12-17 08:11:50 51°13.702 2°55.678 1.1 285 3.8 101140 98
2008-12-17 08:11:55 51°13.703 2°55.678 1.3 23 3.8 101140 98
2008-12-17 08:12:00 51°13.704 2°55.678 0.9 78 3.8 101140 98
2008-12-17 08:12:04 51°13.705 2°55.678 1.1 257 3.8 101140 98
2008-12-17 08:12:10 51°13.705 2°55.677 0.9 286 3.8 101140 98
2008-12-17 08:12:15 51°13.706 2°55.676 0.9 255 3.8 101140 98
2008-12-17 08:12:20 51°13.708 2°55.676 0.6 308 3.8 101140 98
2008-12-17 08:12:24 51°13.709 2°55.676 0.5 254 3.8 101140 99
2008-12-17 08:12:30 51°13.712 2°55.675 1.3 304 3.8 101140 99
2008-12-17 08:12:35 51°13.715 2°55.674 1.6 315 3.8 101140 98
2008-12-17 08:12:39 51°13.718 2°55.673 1.7 304 3.8 101140 98
2008-12-17 08:12:44 51°13.723 2°55.672 2.3 319 3.8 101140 98
2008-12-17 08:12:50 51°13.731 2°55.67 2.4 309 3.8 101140 98
2008-12-17 08:12:55 51°13.737 2°55.668 2.9 20 3.8 101140 99
2008-12-17 08:13:00 51°13.745 2°55.666 3.1 305 3.8 101140 99
2008-12-17 08:13:05 51°13.753 2°55.664 2.6 23 3.8 101140 99
2008-12-17 08:13:10 51°13.762 2°55.662 2.9 303 3.8 101140 99
2008-12-17 08:13:15 51°13.771 2°55.66 3.1 319 3.9 101140 99
2008-12-17 08:13:20 51°13.78 2°55.657 3.1 305 3.9 101140 99
2008-12-17 08:13:25 51°13.79 2°55.654 3 20 3.9 101140 99
2008-12-17 08:13:30 51°13.801 2°55.65 3.1 308 3.9 101140 99
2008-12-17 08:13:35 51°13.812 2°55.646 3.6 331 3.9 101140 99
2008-12-17 08:13:40 51°13.823 2°55.641 3.8 281 3.9 101140 99
2008-12-17 08:13:45 51°13.834 2°55.637 4 324 3.9 101140 98
2008-12-17 08:13:50 51°13.846 2°55.631 3.5 279 3.9 101140 98
2008-12-17 08:13:55 51°13.857 2°55.626 3.3 328 3.9 101140 100
2008-12-17 08:14:00 51°13.868 2°55.62 3.7 324 3.9 101140 100
2008-12-17 08:14:05 51°13.879 2°55.615 3.5 321 3.9 101140 99
2008-12-17 08:14:10 51°13.89 2°55.61 3.2 304 3.9 101140 99
2008-12-17 08:14:15 51°13.9 2°55.604 3.5 319 3.9 101140 99
2008-12-17 08:14:20 51°13.91 2°55.599 2.9 308 3.9 101140 99
2008-12-17 08:14:25 51°13.919 2°55.593 3.5 322 3.9 101140 98
2008-12-17 08:14:30 51°13.928 2°55.587 3.4 329 3.9 101140 98
2008-12-17 08:14:35 51°13.937 2°55.582 4 331 4 101140 100
2008-12-17 08:14:40 51°13.945 2°55.576 3.8 285 4 101140 100
2008-12-17 08:14:45 51°13.953 2°55.57 3.3 20 4 101140 99
2008-12-17 08:14:50 51°13.961 2°55.564 3.5 305 4 101140 99
2008-12-17 08:14:55 51°13.97 2°55.559 3.3 316 4 101140 99
2008-12-17 08:15:00 51°13.978 2°55.553 3.9 278 4 101140 99
2008-12-17 08:15:05 51°13.986 2°55.548 3.6 316 4 101140 99
2008-12-17 08:15:10 51°13.994 2°55.542 4.1 304 4 101140 99
2008-12-17 08:15:15 51°14.002 2°55.536 3.8 19 4.1 101140 98
2008-12-17 08:15:20 51°14.01 2°55.529 3.6 282 4.1 101140 98
2008-12-17 08:15:25 51°14.018 2°55.523 3 22 4.1 101140 99
2008-12-17 08:15:30 51°14.026 2°55.516 4.4 304 4.1 101140 99
2008-12-17 08:15:35 51°14.034 2°55.509 4.2 26 4.1 101140 99
2008-12-17 08:15:40 51°14.043 2°55.502 4 284 4.1 101140 99
2008-12-17 08:15:45 51°14.051 2°55.494 4.1 317 4.1 101140 99
2008-12-17 08:15:50 51°14.06 2°55.487 3.8 304 4.1 101140 99
2008-12-17 08:15:55 51°14.069 2°55.479 3.9 21 4.1 101140 99
2008-12-17 08:16:00 51°14.079 2°55.472 4.1 280 4.1 101140 99
2008-12-17 08:16:05 51°14.088 2°55.463 4.2 21 4.1 101140 100
2008-12-17 08:16:10 51°14.097 2°55.455 3.5 279 4.1 101140 100
2008-12-17 08:16:15 51°14.107 2°55.446 4.8 315 4.2 101140 99
2008-12-17 08:16:20 51°14.117 2°55.437 4.5 307 4.2 101140 99
2008-12-17 08:16:25 51°14.127 2°55.428 5.2 317 4.2 101140 100
2008-12-17 08:16:30 51°14.137 2°55.418 4.6 305 4.2 101140 100
2008-12-17 08:16:35 51°14.147 2°55.407 4.4 320 4.2 101150 99
2008-12-17 08:16:40 51°14.158 2°55.396 4.6 326 4.2 101150 99
2008-12-17 08:16:45 51°14.168 2°55.384 4.4 323 4.2 101140 100
2008-12-17 08:16:50 51°14.179 2°55.372 4.4 334 4.2 101140 100
2008-12-17 08:16:55 51°14.19 2°55.359 5.7 331 4.2 101140 99
2008-12-17 08:16:59 51°14.199 2°55.349 4.4 329 4.2 101140 99
2008-12-17 08:17:05 51°14.212 2°55.334 5.2 329 4.3 101140 99
2008-12-17 08:17:10 51°14.223 2°55.32 4.7 331 4.3 101140 99
2008-12-17 08:17:15 51°14.235 2°55.307 4.4 332 4.3 101140 99
2008-12-17 08:17:19 51°14.244 2°55.295 5.5 285 4.3 101140 99
2008-12-17 08:17:25 51°14.257 2°55.278 5.5 325 4.3 101140 100
2008-12-17 08:17:30 51°14.268 2°55.262 6.4 324 4.3 101140 100
2008-12-17 08:17:35 51°14.278 2°55.247 5.6 322 4.3 101140 100
2008-12-17 08:17:39 51°14.287 2°55.234 5.9 280 4.3 101140 100
2008-12-17 08:17:45 51°14.3 2°55.214 5.8 323 4.4 101140 99
2008-12-17 08:17:50 51°14.311 2°55.196 6.1 304 4.4 101140 99
2008-12-17 08:17:55 51°14.322 2°55.178 6.7 323 4.4 101140 100
2008-12-17 08:17:59 51°14.33 2°55.163 7.1 282 4.4 101140 100
2008-12-17 08:18:05 51°14.343 2°55.14 5.6 318 4.5 101140 100
2008-12-17 08:18:10 51°14.353 2°55.121 6.9 303 4.5 101140 100
2008-12-17 08:18:15 51°14.364 2°55.101 7.4 317 4.6 101130 100
2008-12-17 08:18:19 51°14.372 2°55.085 6.8 304 4.6 101130 100
2008-12-17 08:18:25 51°14.385 2°55.061 6.9 316 4.7 101140 99
2008-12-17 08:18:30 51°14.396 2°55.041 6.3 305 4.7 101140 99
2008-12-17 08:18:35 51°14.407 2°55.021 6.8 18 4.7 101140 99
2008-12-17 08:18:39 51°14.415 2°55.004 7.6 303 4.7 101140 99
2008-12-17 08:18:45 51°14.429 2°54.98 7.7 315 4.8 101130 99
2008-12-17 08:18:50 51°14.44 2°54.959 6.9 306 4.8 101130 99
2008-12-17 08:18:55 51°14.451 2°54.938 6.8 22 4.8 101130 100
2008-12-17 08:18:59 51°14.46 2°54.921 6.7 306 4.8 101130 100
2008-12-17 08:19:05 51°14.473 2°54.897 6.9 21 4.8 101130 99
2008-12-17 08:19:10 51°14.485 2°54.876 6.7 302 4.8 101130 99
2008-12-17 08:19:15 51°14.496 2°54.856 7.8 19 4.8 101130 100
2008-12-17 08:19:19 51°14.506 2°54.84 7.9 286 4.8 101130 100
2008-12-17 08:19:25 51°14.52 2°54.817 7.5 23 4.8 101130 100
2008-12-17 08:19:30 51°14.532 2°54.798 7.6 302 4.8 101130 100
2008-12-17 08:19:35 51°14.544 2°54.778 7.4 21 4.8 101130 99
2008-12-17 08:19:39 51°14.554 2°54.764 7.7 283 4.8 101130 99
2008-12-17 08:19:45 51°14.569 2°54.741 6.2 25 4.8 101130 100
2008-12-17 08:19:50 51°14.582 2°54.723 6.2 308 4.8 101130 100
2008-12-17 08:19:55 51°14.595 2°54.705 6.1 19 4.8 101130 100
2008-12-17 08:19:59 51°14.605 2°54.691 6.2 285 4.8 101130 100
2008-12-17 08:20:05 51°14.621 2°54.67 7.3 20 4.8 101130 99
2008-12-17 08:20:10 51°14.634 2°54.653 7.5 309 4.8 101130 99
2008-12-17 08:20:15 51°14.648 2°54.636 6.8 18 4.8 101130 99
2008-12-17 08:20:19 51°14.658 2°54.622 6.6 282 4.8 101130 99
2008-12-17 08:20:25 51°14.674 2°54.601 6.8 26 4.8 101130 100
2008-12-17 08:20:30 51°14.688 2°54.584 6 308 4.8 101130 100
2008-12-17 08:20:35 51°14.701 2°54.567 6.2 27 4.7 101130 100
2008-12-17 08:20:39 51°14.712 2°54.553 6.1 305 4.7 101130 100
2008-12-17 08:20:44 51°14.725 2°54.535 6.8 27 4.7 101140 100
2008-12-17 08:20:50 51°14.74 2°54.514 7.6 280 4.7 101140 100
2008-12-17 08:20:55 51°14.754 2°54.497 7.3 23 4.7 101130 100
2008-12-17 08:21:00 51°14.767 2°54.48 6.4 303 4.7 101130 100
2008-12-17 08:21:05 51°14.78 2°54.463 6.2 26 4.7 101140 100
2008-12-17 08:21:10 51°14.794 2°54.446 7.1 309 4.7 101140 100
2008-12-17 08:21:15 51°14.807 2°54.43 6.2 21 4.7 101140 99
2008-12-17 08:21:20 51°14.821 2°54.413 6.8 304 4.7 101140 99
2008-12-17 08:21:25 51°14.835 2°54.397 6.8 24 4.8 101140 100
2008-12-17 08:21:30 51°14.848 2°54.381 6.8 304 4.8 101140 100
2008-12-17 08:21:35 51°14.862 2°54.365 5.8 24 4.8 101140 100
2008-12-17 08:21:40 51°14.875 2°54.348 5.7 305 4.8 101140 100
2008-12-17 08:21:45 51°14.888 2°54.331 6 25 4.8 101140 100
2008-12-17 08:21:50 51°14.902 2°54.315 6 308 4.8 101140 100
2008-12-17 08:21:55 51°14.915 2°54.298 7.1 24 4.8 101130 100
2008-12-17 08:22:00 51°14.928 2°54.282 6.3 304 4.8 101130 100
2008-12-17 08:22:05 51°14.942 2°54.265 7 20 4.8 101130 100
2008-12-17 08:22:10 51°14.955 2°54.249 6.7 304 4.8 101130 100
2008-12-17 08:22:15 51°14.968 2°54.232 6.2 20 4.8 101140 100
2008-12-17 08:22:20 51°14.981 2°54.216 6.4 304 4.8 101140 100
2008-12-17 08:22:25 51°14.994 2°54.2 4.9 24 4.7 101140 100
2008-12-17 08:22:30 51°15.008 2°54.184 5.2 308 4.7 101140 100
2008-12-17 08:22:35 51°15.021 2°54.167 5.9 316 4.8 101140 100
2008-12-17 08:22:40 51°15.034 2°54.15 5.5 303 4.8 101140 100
2008-12-17 08:22:45 51°15.047 2°54.133 5.3 21 4.8 101140 100
2008-12-17 08:22:50 51°15.06 2°54.116 6.3 306 4.8 101140 100
2008-12-17 08:22:55 51°15.073 2°54.099 5.2 316 4.7 101140 99
2008-12-17 08:23:00 51°15.086 2°54.082 5.6 305 4.7 101140 99
2008-12-17 08:23:05 51°15.099 2°54.065 5.7 315 4.7 101140 100
2008-12-17 08:23:10 51°15.113 2°54.048 6.3 305 4.7 101140 100
2008-12-17 08:23:15 51°15.126 2°54.031 5.6 316 4.7 101140 100
2008-12-17 08:23:20 51°15.139 2°54.014 7 304 4.7 101140 100
2008-12-17 08:23:25 51°15.152 2°53.997 6.4 316 4.7 101140 99
2008-12-17 08:23:30 51°15.165 2°53.979 6.3 304 4.7 101140 99
2008-12-17 08:23:35 51°15.178 2°53.962 5.5 316 4.7 101140 100
2008-12-17 08:23:40 51°15.191 2°53.945 6.3 305 4.7 101140 100
2008-12-17 08:23:45 51°15.205 2°53.928 5.7 21 4.8 101140 100
2008-12-17 08:23:50 51°15.218 2°53.91 5.9 305 4.8 101140 100
2008-12-17 08:23:55 51°15.231 2°53.893 5.6 316 4.8 101140 100
2008-12-17 08:24:00 51°15.244 2°53.877 5.7 281 4.8 101140 100
2008-12-17 08:24:05 51°15.257 2°53.859 6.5 317 4.8 101140 100
2008-12-17 08:24:10 51°15.27 2°53.843 5.4 305 4.8 101140 100
2008-12-17 08:24:15 51°15.284 2°53.826 6.3 315 4.8 101140 100
2008-12-17 08:24:20 51°15.297 2°53.809 6.3 305 4.8 101140 100
2008-12-17 08:24:25 51°15.31 2°53.792 6.4 317 4.8 101140 100
2008-12-17 08:24:30 51°15.324 2°53.776 6.6 307 4.8 101140 100
2008-12-17 08:24:35 51°15.337 2°53.759 6.3 316 4.8 101140 100
2008-12-17 08:24:40 51°15.351 2°53.742 6.2 303 4.8 101140 100
2008-12-17 08:24:45 51°15.365 2°53.726 5.5 25 4.8 101140 100
2008-12-17 08:24:50 51°15.378 2°53.71 7 306 4.8 101140 100
2008-12-17 08:24:55 51°15.393 2°53.695 6.4 319 4.8 101140 100
2008-12-17 08:25:00 51°15.406 2°53.679 6.7 307 4.8 101140 100
2008-12-17 08:25:05 51°15.421 2°53.663 5.5 19 4.8 101150 100
2008-12-17 08:25:10 51°15.435 2°53.648 6.1 279 4.8 101150 100
2008-12-17 08:25:15 51°15.449 2°53.632 5.7 315 4.9 101140 100
2008-12-17 08:25:20 51°15.463 2°53.616 6.3 309 4.9 101140 100
2008-12-17 08:25:25 51°15.477 2°53.601 5.7 23 4.9 101140 100
2008-12-17 08:25:30 51°15.491 2°53.585 6.6 305 4.9 101140 100
2008-12-17 08:25:35 51°15.504 2°53.569 6 21 4.9 101150 100
2008-12-17 08:25:40 51°15.518 2°53.553 6.1 306 4.9 101150 100
2008-12-17 08:25:45 51°15.532 2°53.537 6.6 26 4.9 101140 100
2008-12-17 08:25:50 51°15.546 2°53.521 6.3 309 4.9 101140 100
2008-12-17 08:25:55 51°15.56 2°53.505 6.6 24 4.9 101150 100
2008-12-17 08:26:00 51°15.574 2°53.489 7.2 309 4.9 101150 100
2008-12-17 08:26:05 51°15.588 2°53.472 6 316 4.9 101140 100
2008-12-17 08:26:10 51°15.602 2°53.456 6.3 307 4.9 101140 100
2008-12-17 08:26:15 51°15.616 2°53.44 5.7 318 4.9 101140 100
2008-12-17 08:26:20 51°15.63 2°53.423 6.7 308 4.9 101140 100
2008-12-17 08:26:25 51°15.643 2°53.406 6.1 319 4.9 101140 100
2008-12-17 08:26:30 51°15.657 2°53.39 6.2 307 4.9 101140 100
2008-12-17 08:26:35 51°15.671 2°53.374 7 316 4.9 101140 100
2008-12-17 08:26:40 51°15.685 2°53.357 6.5 309 4.9 101140 100
2008-12-17 08:26:45 51°15.698 2°53.34 7 318 5 101140 100
2008-12-17 08:26:50 51°15.712 2°53.323 6.8 308 5 101140 100
2008-12-17 08:26:55 51°15.726 2°53.307 6.3 318 5 101140 100
2008-12-17 08:27:00 51°15.739 2°53.289 7 302 5 101140 100
2008-12-17 08:27:05 51°15.753 2°53.273 7.1 318 5 101140 100
2008-12-17 08:27:10 51°15.766 2°53.256 7.4 304 5 101140 100
2008-12-17 08:27:15 51°15.78 2°53.239 7.3 318 5 101140 100
2008-12-17 08:27:20 51°15.793 2°53.222 7.3 306 5 101140 100
2008-12-17 08:27:25 51°15.807 2°53.205 6.3 319 5.1 101140 100
2008-12-17 08:27:30 51°15.821 2°53.188 7.4 279 5.1 101140 100
2008-12-17 08:27:35 51°15.834 2°53.171 6 320 5.1 101140 100
2008-12-17 08:27:40 51°15.848 2°53.154 6.7 303 5.1 101140 100
2008-12-17 08:27:45 51°15.861 2°53.137 6 318 5.1 101140 100
2008-12-17 08:27:50 51°15.874 2°53.12 7.3 304 5.1 101140 100
2008-12-17 08:27:55 51°15.888 2°53.103 6.8 316 5.2 101150 100
2008-12-17 08:28:00 51°15.901 2°53.086 6.4 310 5.2 101150 100
2008-12-17 08:28:05 51°15.915 2°53.069 7.2 316 5.2 101150 100
2008-12-17 08:28:10 51°15.928 2°53.052 6.1 306 5.2 101150 100
2008-12-17 08:28:15 51°15.941 2°53.034 6.2 317 5.2 101150 100
2008-12-17 08:28:20 51°15.955 2°53.017 7.3 302 5.2 101150 100
2008-12-17 08:28:25 51°15.968 2°53 6.6 319 5.2 101140 100
2008-12-17 08:28:30 51°15.981 2°52.983 7.4 309 5.2 101140 100
2008-12-17 08:28:35 51°15.995 2°52.965 7.4 318 5.2 101140 100
2008-12-17 08:28:40 51°16.008 2°52.948 6.6 305 5.2 101140 100
2008-12-17 08:28:45 51°16.022 2°52.931 6.2 317 5.3 101150 100
2008-12-17 08:28:50 51°16.035 2°52.914 6.7 305 5.3 101150 100
2008-12-17 08:28:55 51°16.048 2°52.896 6.4 317 5.3 101140 100
2008-12-17 08:29:00 51°16.062 2°52.879 7.4 310 5.3 101140 100
2008-12-17 08:29:04 51°16.073 2°52.866 6.2 319 5.3 101150 100
2008-12-17 08:29:10 51°16.089 2°52.846 6.4 303 5.3 101150 100
2008-12-17 08:29:15 51°16.102 2°52.828 7.3 318 5.4 101140 100
2008-12-17 08:29:20 51°16.116 2°52.811 7.4 305 5.4 101140 100
2008-12-17 08:29:24 51°16.126 2°52.797 5.8 319 5.4 101140 100
2008-12-17 08:29:30 51°16.143 2°52.777 7 303 5.4 101140 100
2008-12-17 08:29:35 51°16.156 2°52.76 5.9 318 5.4 101140 100
2008-12-17 08:29:40 51°16.17 2°52.743 7.1 304 5.4 101140 100
2008-12-17 08:29:44 51°16.18 2°52.729 7.4 322 5.4 101140 100
2008-12-17 08:29:50 51°16.197 2°52.709 6.8 305 5.4 101140 100
2008-12-17 08:29:55 51°16.21 2°52.691 6.7 319 5.4 101140 100
2008-12-17 08:30:00 51°16.224 2°52.674 7 306 5.4 101140 100
2008-12-17 08:30:05 51°16.237 2°52.657 6.2 319 5.4 101140 100
2008-12-17 08:30:10 51°16.251 2°52.64 5.9 280 5.4 101140 100
2008-12-17 08:30:15 51°16.265 2°52.623 6.6 321 5.5 101140 100
2008-12-17 08:30:20 51°16.278 2°52.606 6 307 5.5 101140 100
2008-12-17 08:30:24 51°16.289 2°52.592 7.4 320 5.5 101140 100
2008-12-17 08:30:30 51°16.305 2°52.571 6.7 281 5.5 101140 100
2008-12-17 08:30:35 51°16.319 2°52.554 6.4 318 5.6 101150 100
2008-12-17 08:30:39 51°16.33 2°52.54 6.7 305 5.6 101150 100
2008-12-17 08:30:44 51°16.343 2°52.523 6.5 320 5.6 101150 100
2008-12-17 08:30:50 51°16.36 2°52.503 7 304 5.6 101150 100
2008-12-17 08:30:55 51°16.374 2°52.485 6.4 319 5.6 101140 100
2008-12-17 08:31:00 51°16.387 2°52.468 7.3 283 5.6 101140 100
2008-12-17 08:31:04 51°16.398 2°52.455 6.3 322 5.6 101140 100
2008-12-17 08:31:10 51°16.415 2°52.434 6.2 306 5.6 101140 100
2008-12-17 08:31:15 51°16.428 2°52.417 6.7 317 5.6 101140 100
2008-12-17 08:31:20 51°16.442 2°52.4 5.9 305 5.6 101140 100
2008-12-17 08:31:25 51°16.456 2°52.383 6 321 5.7 101140 100
2008-12-17 08:31:30 51°16.47 2°52.366 8.1 303 5.7 101140 100
2008-12-17 08:31:35 51°16.483 2°52.349 7.1 324 5.7 101140 100
2008-12-17 08:31:40 51°16.497 2°52.333 5.9 308 5.7 101140 100
2008-12-17 08:31:45 51°16.512 2°52.316 5.6 320 5.7 101140 100
2008-12-17 08:31:50 51°16.525 2°52.3 8 285 5.7 101140 100
2008-12-17 08:31:55 51°16.539 2°52.283 6.4 325 5.7 101140 100
2008-12-17 08:32:00 51°16.553 2°52.266 6.6 305 5.7 101140 100
2008-12-17 08:32:05 51°16.566 2°52.249 6.7 324 5.8 101140 100
2008-12-17 08:32:10 51°16.58 2°52.232 7.1 328 5.8 101140 100
2008-12-17 08:32:15 51°16.594 2°52.215 7.7 326 5.8 101140 100
2008-12-17 08:32:20 51°16.607 2°52.198 6 327 5.8 101140 100
2008-12-17 08:32:25 51°16.621 2°52.182 6.8 327 5.8 101140 100
2008-12-17 08:32:30 51°16.635 2°52.165 7 285 5.8 101140 100
2008-12-17 08:32:35 51°16.649 2°52.149 6.9 331 5.8 101140 100
2008-12-17 08:32:40 51°16.663 2°52.134 7.9 330 5.8 101140 100
2008-12-17 08:32:45 51°16.677 2°52.119 7.8 332 5.9 101140 100
2008-12-17 08:32:50 51°16.692 2°52.104 8.8 331 5.9 101140 100
2008-12-17 08:32:55 51°16.706 2°52.09 7.6 333 5.9 101140 100
2008-12-17 08:33:00 51°16.721 2°52.076 8.5 333 5.9 101140 100
2008-12-17 08:33:05 51°16.736 2°52.062 8.9 332 5.9 101140 100
2008-12-17 08:33:10 51°16.751 2°52.049 8 332 5.9 101140 100
2008-12-17 08:33:15 51°16.766 2°52.036 8.5 332 6 101140 100
2008-12-17 08:33:20 51°16.781 2°52.024 7.9 331 6 101140 100
2008-12-17 08:33:25 51°16.797 2°52.012 9.2 331 6 101140 100
2008-12-17 08:33:30 51°16.812 2°52 9.3 279 6 101140 100
2008-12-17 08:33:35 51°16.827 2°51.988 8.3 331 6.1 101130 100
2008-12-17 08:33:40 51°16.843 2°51.976 8.4 331 6.1 101130 100
2008-12-17 08:33:45 51°16.858 2°51.965 8.3 331 6.1 101140 100
2008-12-17 08:33:50 51°16.873 2°51.954 9.1 331 6.1 101140 100
2008-12-17 08:33:55 51°16.889 2°51.942 8.9 331 6.2 101130 100
2008-12-17 08:34:00 51°16.904 2°51.932 9.7 329 6.2 101130 100
2008-12-17 08:34:05 51°16.92 2°51.92 9 330 6.2 101140 100
2008-12-17 08:34:10 51°16.935 2°51.909 10.1 331 6.2 101140 100
2008-12-17 08:34:15 51°16.95 2°51.898 9 330 6.3 101130 100
2008-12-17 08:34:20 51°16.966 2°51.886 9.2 330 6.3 101130 100
2008-12-17 08:34:25 51°16.981 2°51.876 9.5 329 6.3 101130 100
2008-12-17 08:34:30 51°16.997 2°51.865 9.1 279 6.3 101130 100
2008-12-17 08:34:35 51°17.012 2°51.854 9.9 330 6.3 101130 100
2008-12-17 08:34:40 51°17.028 2°51.842 9.4 330 6.3 101130 100
2008-12-17 08:34:45 51°17.043 2°51.831 10.5 328 6.4 101130 100
2008-12-17 08:34:50 51°17.059 2°51.82 9.4 328 6.4 101130 100
2008-12-17 08:34:55 51°17.074 2°51.809 9.4 331 6.4 101130 100
2008-12-17 08:35:00 51°17.089 2°51.797 10.6 330 6.4 101130 100
2008-12-17 08:35:05 51°17.105 2°51.786 10.2 329 6.4 101130 100
2008-12-17 08:35:10 51°17.12 2°51.775 9.4 330 6.4 101130 100
2008-12-17 08:35:15 51°17.135 2°51.764 11.1 328 6.5 101130 100
2008-12-17 08:35:20 51°17.151 2°51.753 9.6 329 6.5 101130 100
2008-12-17 08:35:25 51°17.166 2°51.743 11.7 329 6.5 101140 100
2008-12-17 08:35:30 51°17.182 2°51.732 9.7 284 6.5 101140 100
2008-12-17 08:35:35 51°17.198 2°51.723 9.8 329 6.5 101130 100
2008-12-17 08:35:40 51°17.213 2°51.714 11.2 328 6.5 101130 100
2008-12-17 08:35:45 51°17.229 2°51.704 10.9 328 6.5 101130 100
2008-12-17 08:35:50 51°17.245 2°51.696 9.9 328 6.5 101130 100
2008-12-17 08:35:55 51°17.261 2°51.686 9.9 328 6.5 101130 100
2008-12-17 08:36:00 51°17.277 2°51.678 11.3 301 6.5 101130 100
2008-12-17 08:36:05 51°17.292 2°51.669 11.5 329 6.6 101130 100
2008-12-17 08:36:10 51°17.308 2°51.66 10 329 6.6 101130 100
2008-12-17 08:36:15 51°17.324 2°51.651 9.9 327 6.6 101130 100
2008-12-17 08:36:20 51°17.34 2°51.642 11.3 327 6.6 101130 100
2008-12-17 08:36:25 51°17.356 2°51.636 11.2 326 6.6 101130 100
2008-12-17 08:36:30 51°17.373 2°51.631 10.1 279 6.6 101130 100
2008-12-17 08:36:35 51°17.389 2°51.626 10.8 326 6.6 101130 100
2008-12-17 08:36:40 51°17.405 2°51.621 9.6 305 6.6 101130 100
2008-12-17 08:36:45 51°17.421 2°51.618 9.8 324 6.6 101130 100
2008-12-17 08:36:50 51°17.438 2°51.615 11.2 324 6.6 101130 100
2008-12-17 08:36:55 51°17.454 2°51.612 11.3 325 6.7 101130 100
2008-12-17 08:37:00 51°17.47 2°51.61 10 305 6.7 101130 100
2008-12-17 08:37:05 51°17.487 2°51.608 11.3 324 6.7 101130 100
2008-12-17 08:37:10 51°17.503 2°51.606 9.8 304 6.7 101130 100
2008-12-17 08:37:15 51°17.52 2°51.604 11.8 324 6.7 101130 100
2008-12-17 08:37:20 51°17.536 2°51.603 9.8 304 6.7 101130 100
2008-12-17 08:37:25 51°17.553 2°51.6 11.8 324 6.7 101130 100
2008-12-17 08:37:30 51°17.569 2°51.599 11.2 281 6.7 101130 100
2008-12-17 08:37:35 51°17.585 2°51.597 10 324 6.7 101130 100
2008-12-17 08:37:40 51°17.601 2°51.595 11.3 305 6.7 101130 100
2008-12-17 08:37:45 51°17.618 2°51.594 9.8 323 6.7 101130 100
2008-12-17 08:37:50 51°17.634 2°51.592 11.4 324 6.7 101130 100
2008-12-17 08:37:55 51°17.651 2°51.591 9.9 323 6.7 101130 100
2008-12-17 08:37:59 51°17.664 2°51.59 11.8 322 6.7 101130 100
2008-12-17 08:38:05 51°17.683 2°51.59 11.4 323 6.7 101130 100
2008-12-17 08:38:10 51°17.7 2°51.588 10.1 304 6.7 101130 100
2008-12-17 08:38:15 51°17.716 2°51.587 10.4 324 6.7 101130 100
2008-12-17 08:38:19 51°17.729 2°51.585 9.9 304 6.7 101130 100
2008-12-17 08:38:25 51°17.749 2°51.584 10.2 323 6.7 101130 100
2008-12-17 08:38:30 51°17.765 2°51.582 10.2 282 6.7 101130 100
2008-12-17 08:38:35 51°17.782 2°51.581 11 323 6.8 101130 100
2008-12-17 08:38:39 51°17.795 2°51.579 12 324 6.8 101130 100
2008-12-17 08:38:45 51°17.815 2°51.578 11.5 324 6.8 101130 100
2008-12-17 08:38:50 51°17.831 2°51.577 11.7 324 6.8 101130 100
2008-12-17 08:38:55 51°17.848 2°51.575 10.2 323 6.8 101120 100
2008-12-17 08:38:59 51°17.861 2°51.574 11.8 302 6.8 101120 100
2008-12-17 08:39:05 51°17.881 2°51.573 11.7 324 6.8 101130 100
2008-12-17 08:39:10 51°17.897 2°51.572 10.6 305 6.8 101130 100
2008-12-17 08:39:15 51°17.914 2°51.572 11.8 323 6.8 101130 100
2008-12-17 08:39:19 51°17.927 2°51.57 10.6 324 6.8 101130 100
2008-12-17 08:39:25 51°17.946 2°51.57 12.1 323 6.8 101130 100
2008-12-17 08:39:30 51°17.963 2°51.569 10.1 282 6.8 101130 100
2008-12-17 08:39:35 51°17.98 2°51.569 10.6 323 6.8 101130 100
2008-12-17 08:39:39 51°17.993 2°51.568 10.8 303 6.8 101130 100
2008-12-17 08:39:45 51°18.013 2°51.568 12.4 322 6.8 101130 100
2008-12-17 08:39:50 51°18.029 2°51.568 10.6 305 6.8 101130 100
2008-12-17 08:39:55 51°18.046 2°51.567 10.3 323 6.8 101130 100
2008-12-17 08:39:59 51°18.059 2°51.567 10.5 305 6.8 101130 100
2008-12-17 08:40:05 51°18.079 2°51.566 10.3 323 6.8 101130 100
2008-12-17 08:40:10 51°18.095 2°51.565 12.3 306 6.8 101130 100
2008-12-17 08:40:15 51°18.112 2°51.564 12.2 323 6.8 101130 100
2008-12-17 08:40:19 51°18.125 2°51.563 10.3 306 6.8 101130 100
2008-12-17 08:40:25 51°18.145 2°51.561 10.3 322 6.8 101120 100
2008-12-17 08:40:30 51°18.161 2°51.56 10.6 286 6.8 101120 100
2008-12-17 08:40:35 51°18.178 2°51.559 10.2 324 6.8 101130 100
2008-12-17 08:40:39 51°18.191 2°51.558 10.3 303 6.8 101130 100
2008-12-17 08:40:45 51°18.21 2°51.557 10 324 6.8 101130 100
2008-12-17 08:40:50 51°18.227 2°51.556 10.2 304 6.8 101130 100
2008-12-17 08:40:55 51°18.243 2°51.556 10.3 324 6.9 101130 100
2008-12-17 08:40:59 51°18.256 2°51.555 10.3 305 6.9 101130 100
2008-12-17 08:41:05 51°18.276 2°51.554 10.4 324 6.9 101140 100
2008-12-17 08:41:10 51°18.292 2°51.552 10.3 303 6.9 101140 100
2008-12-17 08:41:15 51°18.308 2°51.551 12.6 323 6.9 101140 100
2008-12-17 08:41:19 51°18.321 2°51.549 11.7 323 6.9 101140 100
2008-12-17 08:41:25 51°18.341 2°51.548 11.8 323 6.9 101130 100
2008-12-17 08:41:30 51°18.357 2°51.547 12 279 6.9 101130 100
2008-12-17 08:41:35 51°18.374 2°51.546 12 323 6.9 101130 100
2008-12-17 08:41:39 51°18.387 2°51.545 10.5 304 6.9 101130 100
2008-12-17 08:41:45 51°18.407 2°51.543 10.2 323 6.9 101140 100
2008-12-17 08:41:50 51°18.423 2°51.542 12.6 322 6.9 101140 100
2008-12-17 08:41:55 51°18.439 2°51.54 10.6 323 6.9 101130 100
2008-12-17 08:41:59 51°18.452 2°51.539 11.6 323 6.9 101130 100
2008-12-17 08:42:04 51°18.468 2°51.537 12.2 323 6.9 101130 100
2008-12-17 08:42:10 51°18.488 2°51.535 12.3 304 6.9 101130 100
2008-12-17 08:42:15 51°18.505 2°51.533 12.4 322 6.9 101140 100
2008-12-17 08:42:20 51°18.521 2°51.531 10.6 305 6.9 101140 100
2008-12-17 08:42:25 51°18.538 2°51.529 10.2 321 6.9 101130 100
2008-12-17 08:42:30 51°18.554 2°51.528 10.4 283 6.9 101130 100
2008-12-17 08:42:35 51°18.571 2°51.525 11.9 323 6.9 101130 100
2008-12-17 08:42:40 51°18.587 2°51.523 11.9 304 6.9 101130 100
2008-12-17 08:42:45 51°18.603 2°51.521 10.7 324 6.9 101130 100
2008-12-17 08:42:50 51°18.62 2°51.518 11.6 302 6.9 101130 100
2008-12-17 08:42:55 51°18.636 2°51.515 12.2 323 6.9 101120 100
2008-12-17 08:43:00 51°18.653 2°51.513 12.7 304 6.9 101120 100
2008-12-17 08:43:05 51°18.669 2°51.511 12 323 6.9 101130 100
2008-12-17 08:43:10 51°18.685 2°51.509 10.7 304 6.9 101130 100
2008-12-17 08:43:15 51°18.702 2°51.507 10.7 323 6.9 101130 100
2008-12-17 08:43:20 51°18.718 2°51.505 11.6 304 6.9 101130 100
2008-12-17 08:43:25 51°18.735 2°51.503 10 323 6.9 101130 100
2008-12-17 08:43:30 51°18.752 2°51.501 12.1 285 6.9 101130 100
2008-12-17 08:43:35 51°18.768 2°51.499 10.6 323 6.9 101120 100
2008-12-17 08:43:40 51°18.785 2°51.498 12.2 323 6.9 101120 100
2008-12-17 08:43:45 51°18.801 2°51.496 12.2 323 6.9 101130 100
2008-12-17 08:43:50 51°18.818 2°51.495 11.5 303 6.9 101130 100
2008-12-17 08:43:55 51°18.834 2°51.494 10.3 322 6.9 101130 100
2008-12-17 08:44:00 51°18.851 2°51.494 10.4 304 6.9 101130 100
2008-12-17 08:44:05 51°18.867 2°51.493 10.5 322 6.9 101130 100
2008-12-17 08:44:10 51°18.883 2°51.492 10.3 304 6.9 101130 100
2008-12-17 08:44:15 51°18.9 2°51.492 12 323 6.9 101130 100
2008-12-17 08:44:20 51°18.916 2°51.491 11.9 304 6.9 101130 100
2008-12-17 08:44:25 51°18.933 2°51.49 10.4 322 6.9 101130 100
2008-12-17 08:44:30 51°18.949 2°51.489 11.6 279 6.9 101130 100
2008-12-17 08:44:35 51°18.966 2°51.489 10.2 322 6.9 101130 100
2008-12-17 08:44:40 51°18.982 2°51.488 10.2 306 6.9 101130 100
2008-12-17 08:44:45 51°18.998 2°51.487 12.1 322 6.9 101130 100
2008-12-17 08:44:50 51°19.015 2°51.486 9.9 306 6.9 101130 100
2008-12-17 08:44:55 51°19.032 2°51.485 10.1 322 6.9 101130 100
2008-12-17 08:45:00 51°19.048 2°51.484 11.8 322 6.9 101130 100
2008-12-17 08:45:05 51°19.065 2°51.484 10.1 321 6.9 101130 100
2008-12-17 08:45:10 51°19.081 2°51.483 9.9 303 6.9 101130 100
2008-12-17 08:45:15 51°19.098 2°51.482 11.7 323 7 101130 100
2008-12-17 08:45:20 51°19.114 2°51.481 11.4 305 7 101130 100
2008-12-17 08:45:25 51°19.131 2°51.48 10 323 6.9 101140 100
2008-12-17 08:45:30 51°19.147 2°51.479 12 281 6.9 101140 100
2008-12-17 08:45:35 51°19.164 2°51.477 12 322 6.9 101130 100
2008-12-17 08:45:40 51°19.18 2°51.477 11.6 305 6.9 101130 100
2008-12-17 08:45:45 51°19.197 2°51.476 9.9 322 7 101130 100
2008-12-17 08:45:50 51°19.214 2°51.475 10 307 7 101130 100
2008-12-17 08:45:55 51°19.23 2°51.474 12.1 323 6.9 101130 100
2008-12-17 08:46:00 51°19.247 2°51.472 11.6 322 6.9 101130 100
2008-12-17 08:46:05 51°19.263 2°51.471 10.1 322 6.9 101130 100
2008-12-17 08:46:10 51°19.28 2°51.47 11.7 303 6.9 101130 100
2008-12-17 08:46:15 51°19.296 2°51.468 11.4 323 7 101130 100
2008-12-17 08:46:20 51°19.313 2°51.468 11.7 303 7 101130 100
2008-12-17 08:46:25 51°19.33 2°51.467 9.9 322 7 101130 100
2008-12-17 08:46:30 51°19.347 2°51.466 10.2 287 7 101130 100
2008-12-17 08:46:35 51°19.363 2°51.465 11.7 322 7 101130 100
2008-12-17 08:46:40 51°19.38 2°51.464 11.8 307 7 101130 100
2008-12-17 08:46:45 51°19.397 2°51.463 10.2 322 7 101130 100
2008-12-17 08:46:50 51°19.413 2°51.462 12.3 306 7 101130 100
2008-12-17 08:46:55 51°19.43 2°51.461 10 323 7 101130 100
2008-12-17 08:47:00 51°19.447 2°51.46 9.6 307 7 101130 100
2008-12-17 08:47:05 51°19.463 2°51.458 10 322 6.9 101140 100
2008-12-17 08:47:10 51°19.48 2°51.457 11.6 306 6.9 101140 100
2008-12-17 08:47:15 51°19.497 2°51.456 10.1 322 7 101130 100
2008-12-17 08:47:20 51°19.514 2°51.456 9.9 304 7 101130 100
2008-12-17 08:47:25 51°19.53 2°51.455 12 322 7 101130 100
2008-12-17 08:47:30 51°19.547 2°51.454 9.9 305 7 101130 100
2008-12-17 08:47:35 51°19.564 2°51.453 11.7 322 7 101140 100
2008-12-17 08:47:40 51°19.581 2°51.452 9.9 306 7 101140 100
2008-12-17 08:47:45 51°19.597 2°51.45 11.2 321 6.9 101130 100
2008-12-17 08:47:50 51°19.614 2°51.45 11.8 302 6.9 101130 100
2008-12-17 08:47:55 51°19.63 2°51.448 9.7 322 7 101130 100
2008-12-17 08:48:00 51°19.647 2°51.447 9.7 323 7 101130 100
2008-12-17 08:48:05 51°19.664 2°51.447 11.3 321 6.9 101140 100
2008-12-17 08:48:10 51°19.68 2°51.446 11.4 305 6.9 101140 100
2008-12-17 08:48:15 51°19.697 2°51.445 10 321 7 101130 100
2008-12-17 08:48:20 51°19.713 2°51.444 9.7 306 7 101130 100
2008-12-17 08:48:25 51°19.73 2°51.443 10 322 7 101130 100
2008-12-17 08:48:30 51°19.746 2°51.442 9.7 285 7 101130 100
2008-12-17 08:48:35 51°19.763 2°51.441 9.8 323 7 101140 100
2008-12-17 08:48:40 51°19.779 2°51.438 10.1 304 7 101140 100
2008-12-17 08:48:45 51°19.796 2°51.437 11.3 322 7 101140 100
2008-12-17 08:48:50 51°19.813 2°51.435 10.2 307 7 101140 100
2008-12-17 08:48:55 51°19.829 2°51.434 11.5 322 7 101130 100
2008-12-17 08:49:00 51°19.846 2°51.432 9.6 305 7 101130 100
2008-12-17 08:49:05 51°19.863 2°51.43 12 321 7 101140 100
2008-12-17 08:49:10 51°19.879 2°51.428 12 323 7 101140 100
2008-12-17 08:49:15 51°19.896 2°51.426 11.6 322 7 101140 100
2008-12-17 08:49:20 51°19.913 2°51.423 9.8 305 7 101140 100
2008-12-17 08:49:25 51°19.929 2°51.42 10.1 322 7 101140 100
2008-12-17 08:49:30 51°19.946 2°51.417 10.1 280 7 101140 100
2008-12-17 08:49:35 51°19.962 2°51.415 10.2 321 7 101140 100
2008-12-17 08:49:40 51°19.979 2°51.413 11.5 305 7 101140 100
2008-12-17 08:49:45 51°19.995 2°51.411 11.7 322 7 101140 100
2008-12-17 08:49:50 51°20.012 2°51.408 10.2 304 7 101140 100
2008-12-17 08:49:55 51°20.028 2°51.406 9.9 322 7 101140 100
2008-12-17 08:50:00 51°20.045 2°51.404 11.8 304 7 101140 100
2008-12-17 08:50:05 51°20.061 2°51.402 11.7 321 7 101140 100
2008-12-17 08:50:10 51°20.077 2°51.399 10.2 306 7 101140 100
2008-12-17 08:50:15 51°20.094 2°51.397 11.5 321 7 101140 100
2008-12-17 08:50:20 51°20.11 2°51.395 11.9 307 7 101140 100
2008-12-17 08:50:25 51°20.127 2°51.393 9.9 323 7 101140 100
2008-12-17 08:50:30 51°20.143 2°51.391 9.7 280 7 101140 100
2008-12-17 08:50:35 51°20.16 2°51.389 12.4 321 7 101140 100
2008-12-17 08:50:40 51°20.176 2°51.387 11.9 307 7 101140 100
2008-12-17 08:50:45 51°20.193 2°51.386 11.4 320 7 101140 100
2008-12-17 08:50:50 51°20.209 2°51.385 12.2 307 7 101140 100
2008-12-17 08:50:55 51°20.225 2°51.384 9.6 320 7 101150 100
2008-12-17 08:51:00 51°20.242 2°51.384 11.7 305 7 101150 100
2008-12-17 08:51:05 51°20.258 2°51.383 9.8 321 7 101140 100
2008-12-17 08:51:10 51°20.275 2°51.382 11.7 308 7 101140 100
2008-12-17 08:51:15 51°20.291 2°51.381 11.4 321 7 101140 100
2008-12-17 08:51:20 51°20.308 2°51.38 11.7 306 7 101140 100
2008-12-17 08:51:25 51°20.325 2°51.379 11.6 321 7 101140 100
2008-12-17 08:51:30 51°20.341 2°51.378 10.2 282 7 101140 100
2008-12-17 08:51:35 51°20.358 2°51.377 11.8 321 7.1 101150 100
2008-12-17 08:51:40 51°20.374 2°51.376 11.8 307 7.1 101150 100
2008-12-17 08:51:45 51°20.391 2°51.375 9.7 320 7.1 101140 100
2008-12-17 08:51:50 51°20.407 2°51.374 12.1 307 7.1 101140 100
2008-12-17 08:51:55 51°20.424 2°51.374 10.2 318 7.1 101140 100
2008-12-17 08:52:00 51°20.44 2°51.373 12.2 307 7.1 101140 100
2008-12-17 08:52:05 51°20.457 2°51.372 10.2 320 7.1 101140 100
2008-12-17 08:52:10 51°20.474 2°51.37 11.4 284 7.1 101140 100
2008-12-17 08:52:15 51°20.49 2°51.369 12.1 321 7.1 101140 100
2008-12-17 08:52:20 51°20.507 2°51.367 12 281 7.1 101140 100
2008-12-17 08:52:25 51°20.523 2°51.367 11.6 320 7.1 101150 100
2008-12-17 08:52:30 51°20.54 2°51.366 11.9 286 7.1 101150 100
2008-12-17 08:52:35 51°20.556 2°51.365 11.3 320 7.1 101150 100
2008-12-17 08:52:40 51°20.573 2°51.364 9.5 279 7.1 101150 100
2008-12-17 08:52:45 51°20.589 2°51.362 10.2 321 7.1 101150 100
2008-12-17 08:52:50 51°20.606 2°51.36 10 280 7.1 101150 100
2008-12-17 08:52:55 51°20.622 2°51.359 10.9 321 7.1 101140 100
2008-12-17 08:53:00 51°20.638 2°51.357 10.4 279 7.1 101140 100
2008-12-17 08:53:05 51°20.655 2°51.355 12.7 320 7.1 101140 100
2008-12-17 08:53:10 51°20.671 2°51.353 12.1 279 7.1 101140 100
2008-12-17 08:53:15 51°20.688 2°51.351 11.9 321 7.1 101150 100
2008-12-17 08:53:19 51°20.701 2°51.35 10.4 280 7.1 101150 100
2008-12-17 08:53:25 51°20.72 2°51.348 10.2 320 7.1 101140 100
2008-12-17 08:53:30 51°20.736 2°51.346 10.3 285 7.1 101140 100
2008-12-17 08:53:35 51°20.753 2°51.345 12 321 7.1 101150 100
2008-12-17 08:53:39 51°20.766 2°51.344 10.4 281 7.1 101150 100
2008-12-17 08:53:45 51°20.786 2°51.342 12.5 321 7.1 101140 100
2008-12-17 08:53:50 51°20.802 2°51.34 10.5 277 7.1 101140 100
2008-12-17 08:53:55 51°20.818 2°51.339 12.3 319 7.1 101150 100
2008-12-17 08:53:59 51°20.831 2°51.337 13 287 7.1 101150 100
2008-12-17 08:54:05 51°20.851 2°51.336 12.4 319 7.1 101140 100
2008-12-17 08:54:10 51°20.867 2°51.334 10.4 284 7.1 101140 100
2008-12-17 08:54:15 51°20.884 2°51.333 12.6 320 7.1 101150 100
2008-12-17 08:54:19 51°20.897 2°51.331 13 278 7.1 101150 100
2008-12-17 08:54:25 51°20.916 2°51.33 10.7 320 7.1 101140 100
2008-12-17 08:54:30 51°20.933 2°51.328 10.5 281 7.1 101140 100
2008-12-17 08:54:35 51°20.949 2°51.327 10.5 321 7.1 101150 100
2008-12-17 08:54:39 51°20.962 2°51.325 10.7 280 7.1 101150 100
2008-12-17 08:54:45 51°20.982 2°51.324 12.8 320 7.1 101140 100
2008-12-17 08:54:50 51°20.998 2°51.323 10.9 283 7.1 101140 100
2008-12-17 08:54:55 51°21.015 2°51.321 12.6 320 7.1 101150 100
2008-12-17 08:54:59 51°21.028 2°51.32 10.7 279 7.1 101150 100
2008-12-17 08:55:05 51°21.047 2°51.319 13.1 319 7.1 101150 100
2008-12-17 08:55:10 51°21.064 2°51.32 10.3 286 7.1 101150 100
2008-12-17 08:55:15 51°21.08 2°51.32 10.7 320 7.2 101140 100
2008-12-17 08:55:19 51°21.093 2°51.319 10.8 282 7.2 101140 100
2008-12-17 08:55:25 51°21.113 2°51.318 12 321 7.2 101150 100
2008-12-17 08:55:30 51°21.129 2°51.317 11.6 279 7.2 101150 100
2008-12-17 08:55:35 51°21.145 2°51.317 10.4 320 7.2 101150 100
2008-12-17 08:55:39 51°21.158 2°51.316 11 278 7.2 101150 100
2008-12-17 08:55:45 51°21.178 2°51.317 12.2 320 7.2 101150 100
2008-12-17 08:55:50 51°21.194 2°51.317 12.5 282 7.2 101150 100
2008-12-17 08:55:55 51°21.211 2°51.317 10.9 318 7.2 101160 100
2008-12-17 08:55:59 51°21.224 2°51.317 10.4 280 7.2 101160 100
2008-12-17 08:56:05 51°21.243 2°51.318 13.1 320 7.2 101150 100
2008-12-17 08:56:10 51°21.26 2°51.317 13.1 286 7.2 101150 100
2008-12-17 08:56:15 51°21.276 2°51.317 13.1 320 7.2 101150 100
2008-12-17 08:56:19 51°21.289 2°51.316 13.2 284 7.2 101150 100
2008-12-17 08:56:25 51°21.308 2°51.315 13.2 319 7.2 101150 99
2008-12-17 08:56:30 51°21.325 2°51.314 12.6 283 7.2 101150 99
2008-12-17 08:56:35 51°21.341 2°51.313 12.8 321 7.2 101150 100
2008-12-17 08:56:39 51°21.354 2°51.312 10.9 279 7.2 101150 100
2008-12-17 08:56:45 51°21.374 2°51.311 12.1 320 7.2 101150 100
2008-12-17 08:56:50 51°21.39 2°51.31 10.5 279 7.2 101150 100
2008-12-17 08:56:55 51°21.406 2°51.308 11.5 320 7.2 101150 100
2008-12-17 08:56:59 51°21.419 2°51.308 13 282 7.2 101150 100
2008-12-17 08:57:05 51°21.438 2°51.306 13.4 319 7.2 101150 100
2008-12-17 08:57:10 51°21.454 2°51.306 12.8 287 7.2 101150 100
2008-12-17 08:57:15 51°21.471 2°51.304 11.3 320 7.2 101150 100
2008-12-17 08:57:19 51°21.484 2°51.303 13 280 7.2 101150 100
2008-12-17 08:57:24 51°21.5 2°51.302 11 319 7.2 101150 100
2008-12-17 08:57:30 51°21.519 2°51.301 13.3 278 7.2 101150 100
2008-12-17 08:57:35 51°21.536 2°51.3 13.1 320 7.2 101140 99
2008-12-17 08:57:39 51°21.549 2°51.3 10.7 283 7.2 101140 99
2008-12-17 08:57:45 51°21.568 2°51.299 12.9 320 7.2 101150 100
2008-12-17 08:57:50 51°21.585 2°51.3 12.9 282 7.2 101150 100
2008-12-17 08:57:55 51°21.601 2°51.3 10.8 318 7.2 101150 100
2008-12-17 08:57:59 51°21.614 2°51.3 10.3 281 7.2 101150 100
2008-12-17 08:58:04 51°21.63 2°51.3 13 319 7.3 101150 100
2008-12-17 08:58:10 51°21.65 2°51.301 12.9 279 7.3 101150 100
2008-12-17 08:58:15 51°21.666 2°51.301 10.7 318 7.3 101150 99
2008-12-17 08:58:19 51°21.68 2°51.301 12.9 286 7.3 101150 99
2008-12-17 08:58:24 51°21.696 2°51.302 13.4 320 7.3 101150 99
2008-12-17 08:58:30 51°21.716 2°51.302 12.8 286 7.3 101150 99
2008-12-17 08:58:35 51°21.732 2°51.302 12.8 318 7.3 101150 99
2008-12-17 08:58:40 51°21.749 2°51.302 13.2 286 7.3 101150 99
2008-12-17 08:58:44 51°21.762 2°51.302 11 319 7.3 101150 100
2008-12-17 08:58:50 51°21.782 2°51.302 12.9 279 7.3 101150 100
2008-12-17 08:58:55 51°21.798 2°51.301 11.2 318 7.3 101150 99
2008-12-17 08:58:59 51°21.812 2°51.301 10.7 282 7.3 101150 99
2008-12-17 08:59:05 51°21.831 2°51.301 10.6 319 7.3 101150 99
2008-12-17 08:59:10 51°21.848 2°51.301 11.3 284 7.3 101150 99
2008-12-17 08:59:15 51°21.864 2°51.3 13.8 318 7.3 101150 100
2008-12-17 08:59:19 51°21.878 2°51.3 14.1 286 7.3 101150 100
2008-12-17 08:59:25 51°21.897 2°51.3 10.8 318 7.3 101150 100
2008-12-17 08:59:30 51°21.914 2°51.3 11.2 279 7.3 101150 100
2008-12-17 08:59:35 51°21.931 2°51.3 12.3 317 7.3 101150 99
2008-12-17 08:59:39 51°21.944 2°51.3 11 282 7.3 101150 99
2008-12-17 08:59:45 51°21.964 2°51.299 11.6 318 7.3 101150 99
2008-12-17 08:59:50 51°21.98 2°51.299 11.3 285 7.3 101150 99
2008-12-17 08:59:55 51°21.997 2°51.298 11.3 319 7.3 101150 99
2008-12-17 08:59:59 51°22.01 2°51.298 14.1 282 7.3 101150 99
2008-12-17 09:00:05 51°22.03 2°51.297 11.3 319 7.3 101150 99
2008-12-17 09:00:10 51°22.047 2°51.296 11.8 281 7.3 101150 99
2008-12-17 09:00:15 51°22.063 2°51.295 13.8 319 7.3 101150 99
2008-12-17 09:00:19 51°22.076 2°51.294 12.9 282 7.3 101150 99
2008-12-17 09:00:24 51°22.093 2°51.292 14 319 7.3 101160 100
2008-12-17 09:00:30 51°22.113 2°51.29 11.7 278 7.3 101160 100
2008-12-17 09:00:35 51°22.129 2°51.288 14.2 318 7.3 101150 99
2008-12-17 09:00:39 51°22.143 2°51.287 12.6 285 7.3 101150 99
2008-12-17 09:00:45 51°22.162 2°51.286 11.9 319 7.3 101160 98
2008-12-17 09:00:50 51°22.179 2°51.285 12.9 284 7.3 101160 98
2008-12-17 09:00:55 51°22.195 2°51.283 13 318 7.3 101150 99
2008-12-17 09:00:59 51°22.209 2°51.282 13.4 283 7.3 101150 99
2008-12-17 09:01:04 51°22.225 2°51.281 11.8 318 7.3 101150 99
2008-12-17 09:01:10 51°22.245 2°51.279 13.6 282 7.3 101150 99
2008-12-17 09:01:15 51°22.262 2°51.278 13.1 319 7.3 101150 98
2008-12-17 09:01:20 51°22.278 2°51.277 13.5 287 7.3 101150 98
2008-12-17 09:01:24 51°22.291 2°51.276 11.6 319 7.4 101170 99
2008-12-17 09:01:30 51°22.311 2°51.274 14 280 7.4 101170 99
2008-12-17 09:01:35 51°22.328 2°51.273 11.7 320 7.3 101150 99
2008-12-17 09:01:40 51°22.344 2°51.272 13 283 7.3 101150 99
2008-12-17 09:01:45 51°22.361 2°51.271 14.2 317 7.3 101150 99
2008-12-17 09:01:50 51°22.378 2°51.27 12.7 277 7.3 101150 99
2008-12-17 09:01:55 51°22.394 2°51.269 13.4 317 7.3 101160 99
2008-12-17 09:01:59 51°22.407 2°51.268 11.4 307 7.3 101160 99
2008-12-17 09:02:04 51°22.424 2°51.267 11.4 317 7.3 101150 98
2008-12-17 09:02:10 51°22.443 2°51.265 13.6 284 7.3 101150 98
2008-12-17 09:02:15 51°22.46 2°51.263 13.3 319 7.4 101150 98
2008-12-17 09:02:20 51°22.477 2°51.262 13 308 7.4 101150 98
2008-12-17 09:02:24 51°22.49 2°51.26 14 319 7.4 101150 98
2008-12-17 09:02:30 51°22.51 2°51.259 12 -999 7.4 101150 98
2008-12-17 09:02:35 51°22.526 2°51.257 14.8 319 7.4 101160 98
2008-12-17 09:02:39 51°22.539 2°51.256 12.8 282 7.4 101160 98
2008-12-17 09:02:44 51°22.556 2°51.255 11.6 318 7.4 101160 98
2008-12-17 09:02:50 51°22.576 2°51.254 12.7 283 7.4 101160 98
2008-12-17 09:02:55 51°22.593 2°51.252 15.8 318 7.4 101160 98
2008-12-17 09:02:59 51°22.606 2°51.251 14.3 285 7.4 101160 98
2008-12-17 09:03:04 51°22.623 2°51.251 15.2 318 7.4 101140 97
2008-12-17 09:03:10 51°22.643 2°51.249 12.7 279 7.4 101140 97
2008-12-17 09:03:15 51°22.659 2°51.248 13.3 317 7.4 101150 98
2008-12-17 09:03:19 51°22.672 2°51.247 14 285 7.4 101150 98
2008-12-17 09:03:24 51°22.689 2°51.246 14.7 316 7.4 101160 97
2008-12-17 09:03:30 51°22.708 2°51.244 15.6 281 7.4 101160 97
2008-12-17 09:03:35 51°22.725 2°51.243 13.1 318 7.4 101150 97
2008-12-17 09:03:40 51°22.741 2°51.242 12.6 282 7.4 101150 97
2008-12-17 09:03:44 51°22.755 2°51.24 14.4 319 7.4 101150 97
2008-12-17 09:03:50 51°22.775 2°51.238 13.4 278 7.4 101150 97
2008-12-17 09:03:55 51°22.791 2°51.235 12.2 318 7.4 101150 97
2008-12-17 09:04:00 51°22.808 2°51.235 13.1 306 7.4 101150 97
2008-12-17 09:04:05 51°22.825 2°51.233 13.2 318 7.4 101160 97
2008-12-17 09:04:10 51°22.841 2°51.233 12.3 285 7.4 101160 97
2008-12-17 09:04:15 51°22.858 2°51.231 14.8 320 7.4 101160 97
2008-12-17 09:04:19 51°22.871 2°51.231 14.7 304 7.4 101160 97
2008-12-17 09:04:25 51°22.891 2°51.23 13 318 7.4 101150 97
2008-12-17 09:04:30 51°22.908 2°51.229 12.8 -999 7.4 101150 97
2008-12-17 09:04:35 51°22.924 2°51.228 14.3 318 7.4 101150 96
2008-12-17 09:04:40 51°22.941 2°51.227 12.5 305 7.4 101150 96
2008-12-17 09:04:45 51°22.958 2°51.225 12.7 320 7.4 101150 96
2008-12-17 09:04:50 51°22.974 2°51.225 15.4 282 7.4 101150 96
2008-12-17 09:04:55 51°22.991 2°51.223 12.1 318 7.4 101150 96
2008-12-17 09:05:00 51°23.007 2°51.222 13.4 301 7.4 101150 96
2008-12-17 09:05:05 51°23.024 2°51.221 12.5 319 7.4 101150 96
2008-12-17 09:05:10 51°23.041 2°51.219 14.4 282 7.4 101150 96
2008-12-17 09:05:15 51°23.058 2°51.218 15.3 319 7.4 101150 97
2008-12-17 09:05:20 51°23.074 2°51.217 12.5 278 7.4 101150 97
2008-12-17 09:05:25 51°23.091 2°51.216 13.8 317 7.4 101160 96
2008-12-17 09:05:30 51°23.107 2°51.214 12 286 7.4 101160 96
2008-12-17 09:05:35 51°23.124 2°51.213 12.8 318 7.5 101170 96
2008-12-17 09:05:40 51°23.14 2°51.212 15.9 282 7.5 101170 96
2008-12-17 09:05:45 51°23.157 2°51.211 13.9 318 7.5 101160 97
2008-12-17 09:05:50 51°23.173 2°51.21 12.6 307 7.5 101160 97
2008-12-17 09:05:55 51°23.189 2°51.209 13.5 317 7.5 101160 97
2008-12-17 09:06:00 51°23.206 2°51.208 15.1 306 7.5 101160 97
2008-12-17 09:06:05 51°23.222 2°51.207 12.9 317 7.5 101150 96
2008-12-17 09:06:10 51°23.238 2°51.205 13.5 284 7.5 101150 96
2008-12-17 09:06:15 51°23.255 2°51.204 13.8 317 7.5 101150 96
2008-12-17 09:06:20 51°23.271 2°51.202 13 305 7.5 101150 96
2008-12-17 09:06:24 51°23.284 2°51.201 15.4 318 7.5 101150 96
2008-12-17 09:06:30 51°23.304 2°51.2 12.9 282 7.5 101150 96
2008-12-17 09:06:35 51°23.32 2°51.198 15.3 319 7.5 101150 96
2008-12-17 09:06:39 51°23.333 2°51.197 15.7 283 7.5 101150 96
2008-12-17 09:06:45 51°23.353 2°51.195 15.7 317 7.5 101150 96
2008-12-17 09:06:50 51°23.369 2°51.194 12.3 281 7.5 101150 96
2008-12-17 09:06:55 51°23.385 2°51.192 15.6 316 7.5 101150 96
2008-12-17 09:06:59 51°23.398 2°51.191 15 282 7.5 101150 96
2008-12-17 09:07:04 51°23.415 2°51.19 15.8 318 7.5 101150 95
2008-12-17 09:07:10 51°23.434 2°51.188 12.2 283 7.5 101150 95
2008-12-17 09:07:15 51°23.45 2°51.188 14.4 318 7.5 101160 96
2008-12-17 09:07:19 51°23.463 2°51.187 12 282 7.5 101160 96
2008-12-17 09:07:24 51°23.479 2°51.186 15.6 318 7.5 101160 96
2008-12-17 09:07:30 51°23.499 2°51.183 12.9 280 7.5 101160 96
2008-12-17 09:07:35 51°23.515 2°51.182 12.8 319 7.5 101160 96
2008-12-17 09:07:40 51°23.532 2°51.18 12.5 283 7.5 101160 96
2008-12-17 09:07:44 51°23.545 2°51.179 12.8 317 7.5 101160 95
2008-12-17 09:07:50 51°23.565 2°51.177 14.8 283 7.5 101160 95
2008-12-17 09:07:55 51°23.581 2°51.175 15.6 318 7.5 101150 96
2008-12-17 09:07:59 51°23.594 2°51.173 13.4 308 7.5 101150 96
2008-12-17 09:08:05 51°23.613 2°51.171 15.3 317 7.5 101160 96
2008-12-17 09:08:10 51°23.63 2°51.168 13.3 301 7.5 101160 96
2008-12-17 09:08:15 51°23.646 2°51.166 14.2 319 7.5 101150 96
2008-12-17 09:08:19 51°23.659 2°51.164 12.7 306 7.5 101150 96
2008-12-17 09:08:25 51°23.679 2°51.162 13.5 318 7.5 101150 95
2008-12-17 09:08:30 51°23.695 2°51.161 15.8 279 7.5 101150 95
2008-12-17 09:08:35 51°23.712 2°51.16 13.1 317 7.5 101160 96
2008-12-17 09:08:40 51°23.728 2°51.157 12.6 307 7.5 101160 96
2008-12-17 09:08:45 51°23.745 2°51.156 13.2 317 7.5 101160 95
2008-12-17 09:08:50 51°23.761 2°51.154 13 284 7.5 101160 95
2008-12-17 09:08:55 51°23.777 2°51.152 14.4 318 7.5 101150 96
2008-12-17 09:09:00 51°23.794 2°51.15 14.2 306 7.5 101150 96
2008-12-17 09:09:05 51°23.81 2°51.148 15.3 317 7.5 101160 96
2008-12-17 09:09:10 51°23.826 2°51.146 16.1 284 7.5 101160 96
2008-12-17 09:09:15 51°23.842 2°51.145 13.7 315 7.5 101140 95
2008-12-17 09:09:20 51°23.859 2°51.143 13.5 305 7.5 101140 95
2008-12-17 09:09:25 51°23.875 2°51.142 13.1 317 7.5 101150 95
2008-12-17 09:09:30 51°23.892 2°51.141 16.6 286 7.5 101150 95
2008-12-17 09:09:35 51°23.908 2°51.138 15.5 317 7.5 101140 95
2008-12-17 09:09:40 51°23.924 2°51.137 12.6 277 7.5 101140 95
2008-12-17 09:09:45 51°23.941 2°51.136 13 317 7.6 101140 95
2008-12-17 09:09:50 51°23.957 2°51.135 13.2 284 7.6 101140 95
2008-12-17 09:09:55 51°23.973 2°51.134 12.7 318 7.5 101140 95
2008-12-17 09:10:00 51°23.99 2°51.133 16.1 282 7.5 101140 95
2008-12-17 09:10:05 51°24.006 2°51.132 13.6 318 7.6 101150 95
2008-12-17 09:10:10 51°24.022 2°51.132 17 284 7.6 101150 95
2008-12-17 09:10:15 51°24.039 2°51.131 13.5 318 7.5 101140 95
2008-12-17 09:10:20 51°24.055 2°51.13 14.2 307 7.5 101140 95
2008-12-17 09:10:25 51°24.071 2°51.129 13.8 319 7.6 101140 94
2008-12-17 09:10:30 51°24.087 2°51.128 16.1 284 7.6 101140 94
2008-12-17 09:10:35 51°24.104 2°51.127 12.4 317 7.6 101140 95
2008-12-17 09:10:40 51°24.12 2°51.126 15.2 307 7.6 101140 95
2008-12-17 09:10:45 51°24.137 2°51.124 12 319 7.6 101150 95
2008-12-17 09:10:50 51°24.153 2°51.124 12.8 283 7.6 101150 95
2008-12-17 09:10:55 51°24.169 2°51.123 12.5 317 7.6 101150 94
2008-12-17 09:11:00 51°24.185 2°51.122 15.9 308 7.6 101150 94
2008-12-17 09:11:05 51°24.202 2°51.121 15.4 319 7.6 101150 94
2008-12-17 09:11:10 51°24.218 2°51.12 15.7 280 7.6 101150 94
2008-12-17 09:11:15 51°24.234 2°51.119 13.1 317 7.6 101150 94
2008-12-17 09:11:20 51°24.25 2°51.118 14.6 303 7.6 101150 94
2008-12-17 09:11:25 51°24.267 2°51.117 12.7 319 7.6 101160 94
2008-12-17 09:11:30 51°24.283 2°51.116 13.4 283 7.6 101160 94
2008-12-17 09:11:35 51°24.299 2°51.114 15.1 316 7.6 101160 94
2008-12-17 09:11:40 51°24.315 2°51.113 16.2 308 7.6 101160 94
2008-12-17 09:11:45 51°24.331 2°51.112 16.8 318 7.6 101160 94
2008-12-17 09:11:50 51°24.347 2°51.111 13.2 280 7.6 101160 94
2008-12-17 09:11:55 51°24.363 2°51.11 12.3 318 7.6 101160 94
2008-12-17 09:12:00 51°24.379 2°51.109 15.4 281 7.6 101160 94
2008-12-17 09:12:05 51°24.394 2°51.108 14.6 318 7.6 101160 94
2008-12-17 09:12:10 51°24.411 2°51.107 14.7 285 7.6 101160 94
2008-12-17 09:12:15 51°24.426 2°51.104 12.9 320 7.6 101150 94
2008-12-17 09:12:20 51°24.442 2°51.104 12.9 282 7.6 101150 94
2008-12-17 09:12:25 51°24.458 2°51.102 15.2 318 7.6 101160 93
2008-12-17 09:12:30 51°24.474 2°51.101 12.5 285 7.6 101160 93
2008-12-17 09:12:35 51°24.49 2°51.1 12.6 318 7.6 101150 94
2008-12-17 09:12:40 51°24.507 2°51.099 16.2 305 7.6 101150 94
2008-12-17 09:12:45 51°24.522 2°51.097 15.4 316 7.5 101160 94
2008-12-17 09:12:50 51°24.538 2°51.096 12.9 280 7.5 101160 94
2008-12-17 09:12:55 51°24.555 2°51.095 15.6 316 7.6 101150 94
2008-12-17 09:13:00 51°24.571 2°51.094 12.6 306 7.6 101150 94
2008-12-17 09:13:05 51°24.587 2°51.093 12.8 316 7.6 101150 94
2008-12-17 09:13:10 51°24.603 2°51.092 14.2 286 7.6 101150 94
2008-12-17 09:13:15 51°24.619 2°51.091 15.1 317 7.6 101160 93
2008-12-17 09:13:20 51°24.635 2°51.089 11.7 304 7.6 101160 93
2008-12-17 09:13:25 51°24.651 2°51.088 12.7 317 7.6 101150 93
2008-12-17 09:13:30 51°24.667 2°51.087 15.1 282 7.6 101150 93
2008-12-17 09:13:35 51°24.683 2°51.085 15 318 7.5 101160 93
2008-12-17 09:13:40 51°24.699 2°51.084 13.1 305 7.5 101160 93
2008-12-17 09:13:45 51°24.715 2°51.082 15.2 317 7.5 101150 94
2008-12-17 09:13:50 51°24.732 2°51.081 12.8 286 7.5 101150 94
2008-12-17 09:13:55 51°24.748 2°51.079 12.6 317 7.5 101150 93
2008-12-17 09:14:00 51°24.764 2°51.078 14.1 309 7.5 101150 93
2008-12-17 09:14:05 51°24.78 2°51.075 14.9 317 7.5 101160 94
2008-12-17 09:14:10 51°24.796 2°51.073 15.3 283 7.5 101160 94
2008-12-17 09:14:15 51°24.812 2°51.071 15.4 318 7.5 101150 93
2008-12-17 09:14:20 51°24.828 2°51.068 13.4 282 7.5 101150 93
2008-12-17 09:14:25 51°24.844 2°51.066 13.4 318 7.5 101150 93
2008-12-17 09:14:30 51°24.861 2°51.063 15.7 283 7.5 101150 93
2008-12-17 09:14:35 51°24.877 2°51.061 14.6 317 7.5 101160 94
2008-12-17 09:14:40 51°24.893 2°51.059 14.5 303 7.5 101160 94
2008-12-17 09:14:45 51°24.909 2°51.057 12 317 7.5 101160 93
2008-12-17 09:14:50 51°24.925 2°51.054 12.4 310 7.5 101160 93
2008-12-17 09:14:55 51°24.941 2°51.051 12.6 318 7.5 101160 93
2008-12-17 09:15:00 51°24.957 2°51.049 13 304 7.5 101160 93
2008-12-17 09:15:05 51°24.974 2°51.047 12.9 318 7.5 101160 94
2008-12-17 09:15:10 51°24.99 2°51.045 15.3 321 7.5 101160 94
2008-12-17 09:15:15 51°25.006 2°51.042 15.3 320 7.5 101160 94
2008-12-17 09:15:20 51°25.022 2°51.038 14.6 304 7.5 101160 94
2008-12-17 09:15:25 51°25.038 2°51.036 12.4 317 7.5 101160 93
2008-12-17 09:15:30 51°25.055 2°51.032 14.7 280 7.5 101160 93
2008-12-17 09:15:35 51°25.071 2°51.029 13.2 320 7.5 101160 94
2008-12-17 09:15:39 51°25.084 2°51.027 12.7 306 7.5 101160 94
2008-12-17 09:15:45 51°25.103 2°51.022 13.6 317 7.5 101160 93
2008-12-17 09:15:50 51°25.119 2°51.019 14 281 7.5 101160 93
2008-12-17 09:15:55 51°25.135 2°51.015 12.7 318 7.5 101160 92
2008-12-17 09:15:59 51°25.148 2°51.012 15.8 309 7.5 101160 92
2008-12-17 09:16:05 51°25.167 2°51.009 15.3 318 7.5 101150 93
2008-12-17 09:16:10 51°25.184 2°51.006 13.5 284 7.5 101150 93
2008-12-17 09:16:15 51°25.2 2°51.004 14.3 316 7.5 101150 93
2008-12-17 09:16:19 51°25.212 2°51.002 15.2 309 7.5 101150 93
2008-12-17 09:16:25 51°25.232 2°51 12.4 319 7.5 101160 93
2008-12-17 09:16:30 51°25.248 2°50.996 15.2 286 7.5 101160 93
2008-12-17 09:16:35 51°25.264 2°50.994 11.7 319 7.5 101160 92
2008-12-17 09:16:39 51°25.277 2°50.992 14.8 285 7.5 101160 92
2008-12-17 09:16:45 51°25.296 2°50.988 12.1 319 7.5 101160 93
2008-12-17 09:16:50 51°25.312 2°50.986 11.6 282 7.5 101160 93
2008-12-17 09:16:55 51°25.328 2°50.984 13.8 320 7.5 101150 93
2008-12-17 09:16:59 51°25.341 2°50.982 14.3 303 7.5 101150 93
2008-12-17 09:17:05 51°25.36 2°50.979 11.9 318 7.5 101160 92
2008-12-17 09:17:10 51°25.376 2°50.977 14.1 301 7.5 101160 92
2008-12-17 09:17:15 51°25.392 2°50.974 14.2 317 7.5 101160 93
2008-12-17 09:17:19 51°25.405 2°50.972 14.3 306 7.5 101160 93
2008-12-17 09:17:25 51°25.425 2°50.969 12.8 319 7.5 101160 92
2008-12-17 09:17:30 51°25.441 2°50.967 11.8 302 7.5 101160 92
2008-12-17 09:17:35 51°25.457 2°50.965 14.8 319 7.5 101170 93
2008-12-17 09:17:39 51°25.47 2°50.963 14.6 309 7.5 101170 93
2008-12-17 09:17:45 51°25.489 2°50.96 14.8 318 7.5 101160 93
2008-12-17 09:17:50 51°25.505 2°50.958 15.7 285 7.5 101160 93
2008-12-17 09:17:55 51°25.521 2°50.955 13 319 7.5 101160 92
2008-12-17 09:17:59 51°25.533 2°50.954 12.1 303 7.5 101160 92
2008-12-17 09:18:05 51°25.553 2°50.951 14.5 318 7.5 101160 92
2008-12-17 09:18:10 51°25.569 2°50.949 14.4 284 7.5 101160 92
2008-12-17 09:18:15 51°25.585 2°50.945 15.2 320 7.5 101160 92
2008-12-17 09:18:19 51°25.598 2°50.943 15.8 309 7.5 101160 92
2008-12-17 09:18:25 51°25.617 2°50.939 12 318 7.5 101160 92
2008-12-17 09:18:30 51°25.633 2°50.936 15.4 282 7.5 101160 92
2008-12-17 09:18:35 51°25.649 2°50.933 13.9 320 7.5 101170 92
2008-12-17 09:18:39 51°25.662 2°50.931 12.4 305 7.5 101170 92
2008-12-17 09:18:45 51°25.681 2°50.926 12.2 320 7.5 101160 92
2008-12-17 09:18:50 51°25.698 2°50.923 14.1 279 7.5 101160 92
2008-12-17 09:18:55 51°25.713 2°50.919 15.4 321 7.5 101170 91
2008-12-17 09:18:59 51°25.727 2°50.916 15.3 281 7.5 101170 91
2008-12-17 09:19:05 51°25.746 2°50.913 12.9 321 7.5 101160 91
2008-12-17 09:19:10 51°25.762 2°50.909 13 304 7.5 101160 91
2008-12-17 09:19:15 51°25.778 2°50.906 13.7 320 7.5 101160 92
2008-12-17 09:19:19 51°25.791 2°50.903 15.8 307 7.5 101160 92
2008-12-17 09:19:24 51°25.807 2°50.9 15 319 7.5 101160 92
2008-12-17 09:19:30 51°25.827 2°50.897 14.7 302 7.5 101160 92
2008-12-17 09:19:35 51°25.843 2°50.894 14.7 320 7.5 101160 92
2008-12-17 09:19:39 51°25.856 2°50.892 16.7 280 7.5 101160 92
2008-12-17 09:19:44 51°25.872 2°50.89 12.8 319 7.5 101170 91
2008-12-17 09:19:50 51°25.891 2°50.887 13.3 283 7.5 101170 91
2008-12-17 09:19:55 51°25.907 2°50.885 12.8 319 7.5 101170 90
2008-12-17 09:19:59 51°25.92 2°50.883 12.4 284 7.5 101170 90
2008-12-17 09:20:04 51°25.936 2°50.881 12.7 320 7.5 101170 90
2008-12-17 09:20:10 51°25.956 2°50.878 15.4 282 7.5 101170 90
2008-12-17 09:20:15 51°25.972 2°50.876 13 319 7.5 101170 90
2008-12-17 09:20:19 51°25.985 2°50.874 13.1 287 7.5 101170 90
2008-12-17 09:20:24 51°26.001 2°50.872 12.8 319 7.5 101160 90
2008-12-17 09:20:30 51°26.021 2°50.87 15.2 282 7.5 101160 90
2008-12-17 09:20:35 51°26.037 2°50.867 15.7 319 7.5 101170 90
2008-12-17 09:20:40 51°26.053 2°50.866 15.3 282 7.5 101170 90
2008-12-17 09:20:44 51°26.067 2°50.864 14.3 321 7.5 101170 89
2008-12-17 09:20:50 51°26.086 2°50.862 14.9 284 7.5 101170 89
2008-12-17 09:20:55 51°26.103 2°50.86 15 319 7.6 101170 89
2008-12-17 09:20:59 51°26.115 2°50.858 14.5 310 7.6 101170 89
2008-12-17 09:21:04 51°26.132 2°50.856 14.4 319 7.6 101160 89
2008-12-17 09:21:10 51°26.151 2°50.854 14.4 278 7.6 101160 89
2008-12-17 09:21:15 51°26.168 2°50.852 15.4 319 7.6 101170 89
2008-12-17 09:21:20 51°26.184 2°50.851 15.1 286 7.6 101170 89
2008-12-17 09:21:24 51°26.197 2°50.849 12.5 321 7.6 101170 90
2008-12-17 09:21:30 51°26.217 2°50.846 12.2 282 7.6 101170 90
2008-12-17 09:21:35 51°26.233 2°50.843 13.5 320 7.6 101170 89
2008-12-17 09:21:39 51°26.246 2°50.841 13.5 282 7.6 101170 89
2008-12-17 09:21:44 51°26.263 2°50.838 12.5 319 7.6 101160 89
2008-12-17 09:21:50 51°26.282 2°50.835 13.5 282 7.6 101160 89
2008-12-17 09:21:55 51°26.299 2°50.832 16.3 320 7.5 101170 89
2008-12-17 09:22:00 51°26.315 2°50.829 15.1 278 7.5 101170 89
2008-12-17 09:22:04 51°26.328 2°50.828 16.2 318 7.6 101150 89
2008-12-17 09:22:10 51°26.348 2°50.826 13.8 280 7.6 101150 89
2008-12-17 09:22:15 51°26.364 2°50.824 13 320 7.5 101170 89
2008-12-17 09:22:19 51°26.377 2°50.823 16 309 7.5 101170 89
2008-12-17 09:22:24 51°26.394 2°50.822 13.5 320 7.6 101160 89
2008-12-17 09:22:30 51°26.413 2°50.819 15.6 282 7.6 101160 89
2008-12-17 09:22:35 51°26.43 2°50.818 15.7 318 7.6 101160 88
2008-12-17 09:22:39 51°26.443 2°50.816 16.2 279 7.6 101160 88
2008-12-17 09:22:45 51°26.462 2°50.814 13.6 320 7.6 101170 88
2008-12-17 09:22:50 51°26.479 2°50.812 12.4 280 7.6 101170 88
2008-12-17 09:22:55 51°26.495 2°50.81 14.9 318 7.6 101160 88
2008-12-17 09:22:59 51°26.508 2°50.809 13.2 282 7.6 101160 88
2008-12-17 09:23:04 51°26.525 2°50.807 12.5 320 7.6 101170 88
2008-12-17 09:23:10 51°26.544 2°50.806 14.9 286 7.6 101170 88
2008-12-17 09:23:15 51°26.561 2°50.804 12.4 322 7.6 101160 88
2008-12-17 09:23:19 51°26.574 2°50.803 15 285 7.6 101160 88
2008-12-17 09:23:24 51°26.591 2°50.801 12.7 322 7.6 101160 88
2008-12-17 09:23:30 51°26.61 2°50.799 16.1 282 7.6 101160 88
2008-12-17 09:23:35 51°26.627 2°50.797 13.2 321 7.6 101170 88
2008-12-17 09:23:39 51°26.64 2°50.796 15.6 280 7.6 101170 88
2008-12-17 09:23:45 51°26.66 2°50.793 11.5 322 7.6 101170 89
2008-12-17 09:23:50 51°26.676 2°50.792 12.2 305 7.6 101170 89